Weather History for Houston Clover, TX

Change the Weather History Date:

Friday, April 4, 2014

  Actual Average (KHOU) Record (KHOU)
Temperature  
Mean Temperature 70 °F 67 °F  
Max Temperature 77 °F 77 °F 88 °F (1897)
Min Temperature 64 °F 56 °F 34 °F (1987)
Degree Days  
Heating Degree Days 0 2  
Month to date heating degree days 8  
Since 1 July heating degree days 1337  
Cooling Degree Days 4 4  
Month to date cooling degree days 16  
Year to date cooling degree days 125  
Growing Degree Days 20 (Base 50)    
Moisture  
Dew Point 54 °F    
Average Humidity 61    
Maximum Humidity 90    
Minimum Humidity 26    
Precipitation  
Precipitation 0.01 in 0.10 in 3.35 in (1922)
Month to date precipitation 0.40  
Year to date precipitation 10.39  
Sea Level Pressure  
Sea Level Pressure 29.95 in    
Wind  
Wind Speed 8 mph (North)    
Max Wind Speed 18 mph    
Max Gust Speed 28 mph    
Visibility 8 miles    
Events Rain , Thunderstorm    
T = Trace of Precipitation, MM = Missing Value Source: NWS Daily Summary

Daily Weather History Graph

Daily Weather History Graph

Search for Another Location

Airport:

Trip Planner

Search our weather history database for the weather conditions in past years. The results will help you decide how hot, cold, wet, or windy it might be!

Date:

Astronomy

Apr. 04, 2014 Rise Set
Actual Time 7:06 AM CDT 7:41 PM CDT
Civil Twilight 6:42 AM CDT 8:05 PM CDT
Nautical Twilight 6:14 AM CDT 8:33 PM CDT
Astronomical Twilight 5:46 AM CDT 9:02 PM CDT
Moon 10:40 AM CDT (4/4) No Moon Set
Length of Visible Light 13h 22m
Length of Day
12h 34m
Waxing Crescent, 25% of the Moon is Illuminated
Apr 4
Waxing Crescent
Apr 7
First Quarter
Apr 15
Full
Apr 22
Last Quarter
Apr 29
New

Hourly Weather History & Observations

Time (CDT) Temp. Dew Point Humidity Pressure Visibility Wind Dir Wind Speed Gust Speed Precip Events Conditions
12:53 AM 73.0 °F 70.0 °F 90% 29.84 in 5.0 mi South 6.9 mph - N/A   Overcast
1:53 AM 73.0 °F 70.0 °F 90% 29.84 in 3.0 mi South 4.6 mph - 0.00 in Rain Light Rain
2:03 AM 73.0 °F 70.0 °F 90% 29.83 in 2.5 mi SSE 5.8 mph - 0.00 in Rain Light Rain
2:14 AM 73.0 °F 70.0 °F 90% 29.83 in 3.0 mi SSE 5.8 mph - 0.00 in Rain Light Rain
2:53 AM 73.0 °F 70.0 °F 90% 29.85 in 3.0 mi South 3.5 mph - 0.00 in   Overcast
3:53 AM 73.0 °F 70.0 °F 90% 29.85 in 4.0 mi South 8.1 mph - N/A   Overcast
4:38 AM 73.0 °F 70.0 °F 90% 29.86 in 4.0 mi SSW 5.8 mph - 0.00 in Rain Light Rain
4:53 AM 73.0 °F 70.0 °F 90% 29.87 in 4.0 mi SW 5.8 mph - 0.01 in Rain Light Rain
5:05 AM 73.0 °F 70.0 °F 90% 29.87 in 4.0 mi West 6.9 mph - 0.00 in Rain Light Rain
5:49 AM 73.4 °F 69.8 °F 88% 29.87 in 4.0 mi SW 4.6 mph - 0.00 in Thunderstorm Overcast
5:50 AM 73.0 °F 70.0 °F 90% 29.87 in 4.0 mi SW 4.6 mph - 0.00 in Thunderstorm Overcast
6:10 AM 73.0 °F 70.0 °F 90% 29.88 in 4.0 mi SW 4.6 mph - N/A   Overcast
6:48 AM 69.8 °F 66.2 °F 88% 29.89 in 7.0 mi NNW 13.8 mph 24.2 mph N/A   Mostly Cloudy
6:53 AM 70.0 °F 64.0 °F 81% 29.89 in 10.0 mi NNW 12.7 mph 23.0 mph N/A   Mostly Cloudy
7:03 AM 69.1 °F 63.0 °F 81% 29.91 in 10.0 mi North 13.8 mph - N/A   Scattered Clouds
7:53 AM 64.9 °F 54.0 °F 68% 29.95 in 10.0 mi North 8.1 mph 24.2 mph N/A   Clear
8:53 AM 66.0 °F 48.9 °F 54% 29.99 in 10.0 mi NNE 18.4 mph 24.2 mph N/A   Clear
9:53 AM 66.0 °F 45.0 °F 47% 30.04 in 10.0 mi NNE 17.3 mph 26.5 mph N/A   Clear
10:53 AM 66.9 °F 44.1 °F 44% 30.06 in 10.0 mi North 17.3 mph 24.2 mph N/A   Clear
11:53 AM 70.0 °F 43.0 °F 38% 30.08 in 10.0 mi North 13.8 mph 21.9 mph N/A   Clear
12:53 PM 72.0 °F 44.1 °F 37% 30.05 in 10.0 mi NNE 12.7 mph 24.2 mph N/A   Clear
1:53 PM 73.0 °F 43.0 °F 34% 30.03 in 10.0 mi NNE 18.4 mph 26.5 mph N/A   Clear
2:53 PM 73.9 °F 39.9 °F 29% 30.00 in 10.0 mi NNE 15.0 mph 27.6 mph N/A   Clear
3:53 PM 75.9 °F 39.9 °F 27% 30.01 in 10.0 mi North 15.0 mph - N/A   Clear
4:53 PM 75.9 °F 39.9 °F 27% 29.99 in 10.0 mi North 10.4 mph 20.7 mph N/A   Clear
5:53 PM 75.9 °F 39.0 °F 26% 29.99 in 10.0 mi North 9.2 mph - N/A   Clear
6:53 PM 73.0 °F 37.9 °F 28% 29.99 in 10.0 mi North 10.4 mph - N/A   Clear
7:53 PM 70.0 °F 37.9 °F 31% 30.00 in 10.0 mi North 5.8 mph - N/A   Clear
8:53 PM 69.1 °F 37.0 °F 31% 30.01 in 10.0 mi North 6.9 mph - N/A   Clear
9:53 PM 68.0 °F 35.1 °F 30% 30.03 in 10.0 mi North 6.9 mph - N/A   Clear
10:53 PM 66.0 °F 36.0 °F 33% 30.04 in 10.0 mi North 10.4 mph - N/A   Clear
11:53 PM 64.9 °F 37.0 °F 36% 30.04 in 10.0 mi NNE 8.1 mph - N/A   Clear